TimeEST,TemperatureF,Dew PointF,Humidity,Sea Level PressureIn,VisibilityMPH,Wind Direction,Wind SpeedMPH,Gust SpeedMPH,PrecipitationIn,Events,Conditions,WindDirDegrees,DateUTC
12:15 AM,42.1,29.3,61,29.98,10.0,North,4.6,-,N/A,,Overcast,10,2013-02-16 05:15:00
12:35 AM,42.4,29.3,60,29.98,10.0,North,5.8,-,N/A,,Overcast,10,2013-02-16 05:35:00
12:55 AM,41.9,29.3,61,29.97,10.0,North,3.5,-,N/A,,Overcast,350,2013-02-16 05:55:00
1:15 AM,41.7,29.1,61,29.98,10.0,NNE,5.8,-,N/A,,Overcast,20,2013-02-16 06:15:00
1:35 AM,40.3,27.5,60,29.97,10.0,North,8.1,-,N/A,,Overcast,360,2013-02-16 06:35:00
1:55 AM,39.6,27.0,61,29.97,10.0,North,8.1,-,N/A,,Overcast,10,2013-02-16 06:55:00
2:15 AM,39.2,27.0,62,29.97,10.0,North,4.6,-,N/A,,Overcast,360,2013-02-16 07:15:00
2:35 AM,39.2,26.4,60,29.97,10.0,North,4.6,-,N/A,,Overcast,360,2013-02-16 07:35:00
2:55 AM,39.2,25.3,58,29.96,10.0,North,5.8,-,N/A,,Overcast,360,2013-02-16 07:55:00
3:15 AM,39.2,24.6,56,29.95,10.0,North,6.9,-,N/A,,Overcast,360,2013-02-16 08:15:00
3:35 AM,39.2,23.9,54,29.94,10.0,North,4.6,-,N/A,,Overcast,10,2013-02-16 08:35:00
3:55 AM,39.2,24.3,55,29.94,10.0,North,3.5,-,N/A,,Overcast,350,2013-02-16 08:55:00
4:15 AM,38.8,23.9,55,29.94,10.0,North,3.5,-,N/A,,Overcast,360,2013-02-16 09:15:00
4:35 AM,38.7,24.1,56,29.94,10.0,North,3.5,-,N/A,,Overcast,10,2013-02-16 09:35:00
4:55 AM,38.7,23.9,55,29.94,10.0,NNE,3.5,-,N/A,,Overcast,20,2013-02-16 09:55:00
5:15 AM,38.5,23.9,56,29.94,10.0,NE,4.6,-,N/A,,Overcast,40,2013-02-16 10:15:00
5:35 AM,38.3,24.3,57,29.94,10.0,NNE,3.5,-,N/A,,Overcast,20,2013-02-16 10:35:00
5:55 AM,38.3,25.0,59,29.95,10.0,Calm,Calm,-,N/A,,Overcast,0,2013-02-16 10:55:00
6:15 AM,37.8,25.2,60,29.95,10.0,Calm,Calm,-,N/A,,Overcast,0,2013-02-16 11:15:00
6:35 AM,37.9,25.2,60,29.95,10.0,Calm,Calm,-,N/A,,Overcast,0,2013-02-16 11:35:00
6:55 AM,37.8,25.5,61,29.94,10.0,Calm,Calm,-,N/A,,Overcast,0,2013-02-16 11:55:00
7:15 AM,38.1,23.9,57,29.95,10.0,NNE,4.6,-,N/A,,Overcast,30,2013-02-16 12:15:00
7:35 AM,37.9,23.0,55,29.94,10.0,NE,3.5,-,N/A,,Overcast,40,2013-02-16 12:35:00
7:55 AM,37.9,24.1,57,29.94,10.0,ENE,3.5,-,N/A,,Overcast,70,2013-02-16 12:55:00
8:15 AM,38.3,24.1,57,29.94,10.0,ENE,3.5,-,N/A,,Overcast,60,2013-02-16 13:15:00
8:35 AM,38.3,24.4,57,29.94,10.0,Calm,Calm,-,N/A,,Overcast,0,2013-02-16 13:35:00
8:55 AM,38.5,24.4,57,29.94,10.0,Calm,Calm,-,N/A,,Overcast,0,2013-02-16 13:55:00
9:15 AM,38.8,24.6,57,29.94,10.0,Calm,Calm,-,N/A,,Overcast,0,2013-02-16 14:15:00
9:35 AM,38.8,23.9,55,29.94,10.0,Calm,Calm,-,N/A,,Overcast,0,2013-02-16 14:35:00
9:55 AM,39.2,23.2,53,29.93,10.0,Calm,Calm,-,N/A,,Overcast,0,2013-02-16 14:55:00
10:15 AM,37.0,29.7,75,29.93,10.0,SE,6.9,-,N/A,,Overcast,140,2013-02-16 15:15:00
10:35 AM,37.4,29.1,72,29.92,10.0,SE,5.8,-,N/A,,Overcast,140,2013-02-16 15:35:00
1:15 PM,39.0,26.4,61,29.86,10.0,NE,5.8,-,N/A,,Overcast,40,2013-02-16 18:15:00
1:35 PM,35.6,30.6,82,29.86,3.0,North,15.0,20.7,N/A,Snow,Light Snow,360,2013-02-16 18:35:00
1:55 PM,32.0,31.5,98,29.87,0.2,North,9.2,17.3,0.01,Snow,Snow,350,2013-02-16 18:55:00
2:15 PM,32.0,31.6,99,29.86,0.2,North,6.9,-,0.02,Snow,Snow,360,2013-02-16 19:15:00
2:35 PM,32.0,31.5,98,29.85,0.8,WNW,3.5,-,0.04,Snow,Light Snow,300,2013-02-16 19:35:00
2:55 PM,32.0,31.8,99,29.85,1.5,NW,3.5,-,0.04,Snow,Light Snow,310,2013-02-16 19:55:00
3:15 PM,32.0,31.1,96,29.85,4.0,North,3.5,-,N/A,Snow,Light Snow,360,2013-02-16 20:15:00
3:35 PM,32.9,29.3,87,29.84,10.0,North,4.6,-,N/A,,Overcast,350,2013-02-16 20:35:00
3:55 PM,33.1,31.3,93,29.85,10.0,Calm,Calm,-,N/A,,Overcast,0,2013-02-16 20:55:00
4:15 PM,33.6,28.2,81,29.86,10.0,NNW,4.6,-,N/A,,Overcast,330,2013-02-16 21:15:00
4:35 PM,33.8,27.9,79,29.86,10.0,NW,3.5,-,N/A,,Overcast,310,2013-02-16 21:35:00
4:55 PM,34.0,26.1,73,29.86,10.0,NNW,3.5,-,N/A,,Overcast,340,2013-02-16 21:55:00
5:15 PM,36.7,26.1,65,29.87,10.0,WNW,6.9,-,N/A,,Overcast,300,2013-02-16 22:15:00
5:35 PM,35.6,21.4,56,29.87,10.0,WNW,8.1,-,N/A,,Overcast,300,2013-02-16 22:35:00
5:55 PM,34.2,20.1,57,29.89,10.0,NNW,4.6,-,N/A,,Mostly Cloudy,340,2013-02-16 22:55:00
6:15 PM,33.4,18.7,55,29.90,10.0,NNW,9.2,-,N/A,,Overcast,330,2013-02-16 23:15:00
6:35 PM,32.9,18.0,54,29.91,10.0,NNW,4.6,-,N/A,,Overcast,330,2013-02-16 23:35:00
6:55 PM,32.4,17.6,55,29.92,10.0,NNW,4.6,-,N/A,,Overcast,340,2013-02-16 23:55:00
7:15 PM,32.0,17.1,54,29.93,10.0,North,5.8,-,N/A,,Overcast,350,2013-02-17 00:15:00
7:35 PM,32.0,16.2,52,29.94,10.0,North,6.9,-,N/A,,Overcast,360,2013-02-17 00:35:00
7:55 PM,31.5,15.4,52,29.95,10.0,Calm,Calm,-,N/A,,Mostly Cloudy,0,2013-02-17 00:55:00
8:15 PM,30.9,15.4,53,29.95,10.0,Calm,Calm,-,N/A,,Mostly Cloudy,0,2013-02-17 01:15:00
8:35 PM,30.2,16.5,57,29.96,10.0,Calm,Calm,-,N/A,,Overcast,0,2013-02-17 01:35:00
8:55 PM,30.0,15.8,56,29.97,10.0,Calm,Calm,-,N/A,,Mostly Cloudy,0,2013-02-17 01:55:00
9:15 PM,28.9,16.7,60,29.98,10.0,Calm,Calm,-,N/A,,Scattered Clouds,0,2013-02-17 02:15:00
9:35 PM,28.2,16.0,60,29.98,10.0,NW,3.5,-,N/A,,Mostly Cloudy,320,2013-02-17 02:35:00
9:55 PM,28.8,15.4,58,29.99,10.0,NNW,3.5,-,N/A,,Overcast,340,2013-02-17 02:55:00
10:15 PM,28.9,14.7,55,30.00,10.0,Calm,Calm,-,N/A,,Overcast,0,2013-02-17 03:15:00
10:35 PM,28.4,16.2,60,30.00,10.0,NW,9.2,-,N/A,,Overcast,310,2013-02-17 03:35:00
10:55 PM,28.8,16.7,61,30.00,10.0,WNW,4.6,-,N/A,,Overcast,290,2013-02-17 03:55:00
11:15 PM,27.7,17.4,65,30.00,10.0,NW,4.6,-,N/A,,Overcast,310,2013-02-17 04:15:00
11:35 PM,28.4,16.7,62,30.01,10.0,Calm,Calm,-,N/A,,Overcast,0,2013-02-17 04:35:00
11:55 PM,28.4,17.8,64,30.01,10.0,Calm,Calm,-,N/A,,Overcast,0,2013-02-17 04:55:00